This is the latest recevied weather packets stored in our database for station/object EA1GGY-1. If no packets are shown the sender has not sent any weather packets the latest 10 day(s).
| Time | Temp. | Humidity | Pressure | Rain* | Wind** | Luminosity | Snow |
|---|---|---|---|---|---|---|---|
| 1777945712 | 6.67° C | 76% | 1008.8 hPa | - | - | - | - |
| 1777945111 | 7.22° C | 76% | 1009 hPa | - | - | - | - |
| 1777944510 | 6.67° C | 77% | 1009 hPa | - | - | - | - |
| 1777943909 | 6.11° C | 77% | 1009.2 hPa | - | - | - | - |
| 1777943309 | 6.67° C | 75% | 1009.2 hPa | - | - | - | - |
| 1777942708 | 5.56° C | 77% | 1009.3 hPa | - | - | - | - |
| 1777942107 | 6.11° C | 77% | 1009.4 hPa | - | - | - | - |
| 1777941507 | 6.11° C | 77% | 1009.4 hPa | - | - | - | - |
| 1777940906 | 5.56° C | 78% | 1009.5 hPa | - | - | - | - |
| 1777940304 | 6.11° C | 77% | 1009.7 hPa | - | - | - | - |
| 1777939703 | 7.78° C | 80% | 1009.6 hPa | - | - | - | - |
| 1777938613 | 6.67° C | 77% | 1009.6 hPa | - | - | - | - |
| 1777938012 | 6.67° C | 78% | 1009.6 hPa | - | - | - | - |
| 1777937411 | 7.22° C | 76% | 1009.6 hPa | - | - | - | - |
| 1777936810 | 6.67° C | 77% | 1009.7 hPa | - | - | - | - |
| 1777936210 | 6.67° C | 77% | 1009.6 hPa | - | - | - | - |
| 1777935609 | 7.22° C | 76% | 1009.6 hPa | - | - | - | - |
| 1777935008 | 6.67° C | 77% | 1009.6 hPa | - | - | - | - |
| 1777934407 | 7.22° C | 76% | 1009.8 hPa | - | - | - | - |
| 1777933808 | 6.67° C | 78% | 1009.8 hPa | - | - | - | - |
| 1777933205 | 7.22° C | 77% | 1009.8 hPa | - | - | - | - |
| 1777932605 | 6.67° C | 76% | 1009.9 hPa | - | - | - | - |
| 1777932005 | 7.78° C | 76% | 1010 hPa | - | - | - | - |
| 1777931403 | 7.22° C | 77% | 1010 hPa | - | - | - | - |
| 1777930802 | 6.67° C | 78% | 1009.9 hPa | - | - | - | - |
* Rain since midnight (hover to see other rain measurements)
** Current wind speed in m/s (hover to see current wind gust speed)